Starlink 6099

operational
NORAD ID: 57108 Int'l Des: 2023-090 Owner: SPXS Country: US Constellation: starlink
LEOCIRCULAR

Starlink 6099について

説明を読み込み中...

リアルタイム位置

3D地球を読み込み中...

次回通過

高度履歴

Altitude vs Time

uPlot chart will show altitude changes over time

軌道要素

1 57108U 23090H 25303.87971484 -.00000160 00000-0 32366-5 0 9999
2 57108 43.0020 260.2501 0000847 260.4643 99.6104 15.02535424130882
Epoch: Oct 30, 2025 • Age: 10 hours

現在のステータス

高度 562.5 km
速度 7.59 km/s
衛星直下点 41.83°N, 174.59°W
打ち上げ日 Jun 23, 2023
運用期間 2.3 years
タイプ internet

技術仕様

分類 Payload
質量 305.00 kg
乾燥質量 290.00 kg
総質量 305.00 kg
長さ 0.20 m
直径 2.80 m
スパン 9.00 m
形状 Box + pan
製造者 SPXS
バスタイプ Starlink
フェーズステータス In Orbit
所有者/国 SPXS/US

大規模コンステレーション

Loading constellations...